Location: Château de Sainte-Assise
(48.5503°N, 2.5589°E)
Time: 03:36:34
(UTC+00:00)

Daily predictions for brighter satellites

Satellite Brightness Start Highest point End
(mag) Time Altitude Azimuth Time Altitude Azimuth Time Altitude Azimuth
Cosmos 468 4.5 00:03:47 32° SSW 00:06:20 89° WNW 00:11:41 10° NNE
Cosmos 2082 Rocket 3.0 00:01:54 10° NW 00:07:00 36° WSW 00:09:02 27° SSW
COSMOS 2455 4.3 00:04:46 19° SE 00:07:10 24° ESE 00:11:48 10° ENE
MetOp-A 3.5 00:06:33 42° SSW 00:07:31 56° WSW 00:11:17 10° NNW
Nadezhda 1 Rocket 4.1 00:04:29 27° SSW 00:07:55 67° WNW 00:14:08 10° N
Cosmos 2278 Rocket 3.6 00:06:48 10° WSW 00:11:57 35° NW 00:17:08 10° NNE
Cosmos 1869 4.0 00:09:13 10° N 00:12:28 38° ENE 00:13:40 28° ESE
NOSS 3-1 (A) 4.5 00:14:35 17° SE 00:15:54 19° ESE 00:19:31 10° ENE
CZ-4C R/B 4.1 00:12:35 10° NNE 00:15:58 35° E 00:16:54 30° SE
Cosmos 1356 Rocket 3.9 00:12:41 10° N 00:16:37 51° ENE 00:18:25 28° SE
SL-8 R/B 3.7 00:15:45 28° SW 00:18:02 58° SSE 00:22:42 10° E
Cosmos 1452 Rocket 3.9 00:13:46 10° NNW 00:18:50 49° WSW 00:20:55 32° SSW
Cosmos 1992 Rocket 4.2 00:13:46 10° NNW 00:18:57 66° ENE 00:22:24 21° SE
USA 308 3.8 00:23:07 25° ESE 00:23:07 25° ESE 00:26:12 10° ENE
Cosmos 1908 Rocket 4.0 00:19:25 10° N 00:23:47 55° ENE 00:26:03 26° SE
NOSS 3-1 (C) 3.1 00:22:32 35° S 00:24:20 57° ESE 00:29:44 10° NE
Cosmos 972 Rocket 4.4 00:27:06 10° NNW 00:32:38 52° WSW 00:34:55 31° SSW
Cosmos 967 Rocket 4.5 00:29:04 25° SSW 00:33:03 86° SE 00:39:34 10° NE
CZ-3B R/B 4.3 00:28:33 24° SSW 00:33:04 67° SE 01:02:58 10° ENE
COSMOS 2406 3.6 00:29:11 10° NW 00:34:36 46° WSW 00:37:01 29° SSW
Cosmos 2341 Rocket 4.0 00:28:33 10° NNW 00:34:48 77° W 00:38:22 27° S
SL-8 Rocket 4.0 00:32:23 10° NNW 00:38:31 70° W 00:41:58 27° S
SL-4 R/B 2.1 00:42:23 36° SE 00:42:23 36° SE 00:44:58 10° ENE
Cosmos 1782 Rocket 4.5 00:37:56 10° N 00:42:10 44° ENE 00:45:03 18° SE
NOSS 7 (E) 4.4 00:41:40 10° NW 00:44:44 50° SW 00:44:54 49° SW
Cosmos 2297 3.7 00:45:21 28° SSW 00:48:26 75° ESE 00:54:11 10° NNE
DELTA 2 DEB (DPAF) 3.6 00:49:05 10° NNE 00:52:37 68° ESE 00:53:47 39° S
Lacrosse 4 Rocket 1.8 00:48:37 10° NNW 00:52:48 64° NE 00:56:30 13° SE
USA 59 Rocket 2.2 00:52:05 10° NW 00:53:19 12° NNW 00:54:32 10° N
Cosmos 2369 Rocket 2.1 00:50:46 27° SSW 00:53:54 88° WNW 00:59:32 10° NNE
BREEZE-M DEB (TANK) 4.3 00:29:47 10° W 00:54:52 88° SSW 00:59:37 10° ESE
USA 290 2.1 00:53:38 10° NNW 00:56:45 62° WSW 00:57:15 51° SSW
CZ-2C R/B 3.7 00:55:17 22° SW 00:57:19 29° W 01:01:51 10° NW
Cosmos 2228 Rocket 3.8 00:59:27 25° SW 01:01:27 41° WNW 01:05:38 10° N
ADEOS Rocket 3.9 00:55:35 10° NNE 01:01:30 39° E 01:05:49 15° SSE
Lacrosse 5 rocket 3.7 01:05:03 10° NW 01:07:43 20° N 01:10:20 10° NE
Geosat 4.3 01:03:15 10° NNE 01:08:13 62° NW 01:11:26 21° SW
USA 276 1.9 01:09:04 29° W 01:10:21 76° N 01:13:22 10° ENE
Cosmos 1818 3.6 01:09:43 26° SSW 01:12:47 69° ESE 01:18:13 10° NE
In-Cosmos 22 Rocket 4.3 01:09:23 23° S 01:12:50 69° E 01:18:25 10° NNE
Cosmos 2239 Rocket 4.5 01:10:31 10° N 01:16:45 89° E 01:21:32 18° S
Cosmos 1300 Rocket 3.5 01:12:35 10° NNW 01:16:54 67° W 01:19:07 27° S
Cosmos 1315 Rocket 4.3 01:15:23 10° NW 01:18:16 21° W 01:19:10 19° WSW
ARIANE 6 FM1 Upper Stage 3.0 01:16:12 21° WSW 01:18:49 61° NW 01:22:54 10° NE
CENTAUR R/B 4.5 01:19:54 10° NW 01:27:16 43° NNE 01:35:55 10° ESE
Cosmos 1703 Rocket 4.2 01:25:41 24° SW 01:27:55 43° WNW 01:32:07 10° N
Cosmos 2181 Rocket 4.4 01:25:44 21° SW 01:29:53 54° WNW 01:36:10 10° N
Cosmos 1934 Rocket 4.2 01:25:28 10° N 01:31:46 71° E 01:38:06 10° SSE
ATLAS 5 CENTAUR R/B 2.5 01:30:58 13° W 01:33:01 26° NW 01:35:46 10° NNE
Nadezhda 3 Rocket 4.0 01:29:57 20° S 01:34:22 84° W 01:40:40 10° N
Cosmos 1339 Rocket 4.5 01:32:02 19° S 01:36:36 81° E 01:42:43 10° N
Meteor 1-21 Rocket 4.5 01:32:42 18° S 01:37:07 75° E 01:43:03 10° NNE
SeaSat 1 4.4 01:35:09 10° ESE 01:39:24 31° NE 01:43:39 10° NNW
PSLV R/B 4.1 01:36:14 10° N 01:40:01 53° WNW 01:42:06 24° SW
Cosmos 407 Rocket 4.4 01:37:55 15° SSE 01:41:48 40° ESE 01:46:34 10° NE
SJ 16-02 2.7 01:39:46 13° SSE 01:42:57 31° ESE 01:46:41 10° NE
Nimbus 7 Rocket 4.4 01:37:13 10° NNE 01:43:09 89° ESE 01:47:36 18° SSW
ACS3 Solar Sail 3.0 01:39:07 10° N 01:43:49 28° WNW 01:48:09 12° WSW
Cosmos 921 Rocket 3.2 01:41:09 21° S 01:43:52 63° ESE 01:48:01 10° NNE
USA 308 2.6 01:41:51 19° WSW 01:44:27 80° NNW 01:48:44 10° ENE
COSMOS 2455 3.0 01:47:52 18° SW 01:52:31 72° NW 01:58:33 10° NNE
IDEFIX/ARIANE 42P 2.6 01:47:55 10° NNE 01:53:11 85° WNW 01:57:12 18° SSW
Cosmos 540 Rocket 3.6 01:49:05 10° NNW 01:54:12 74° ENE 01:59:16 10° SSE
SL-8 R/B 3.7 01:55:29 10° W 02:00:15 90° NNW 02:05:02 10° E
ADEOS II 4.1 01:56:37 10° NE 02:00:37 22° E 02:04:35 10° SE
Iridium 82 4.3 02:00:15 26° SW 02:01:28 46° W 02:04:12 10° N
SL-19 R/B 3.7 01:59:03 13° SSE 02:01:55 83° WSW 02:05:11 10° NNW
Meteor 1-11 4.3 02:00:23 14° S 02:05:15 79° E 02:10:57 10° NNE
NOSS 3-1 (A) 3.1 02:01:56 16° SW 02:05:45 70° NW 02:11:33 10° NE
Resurs 1-4 Rocket 3.3 02:06:10 10° NNE 02:11:03 38° E 02:15:56 10° SSE
Okean 1 Rocket 4.1 02:07:06 10° N 02:11:17 44° ENE 02:15:25 10° SSE
NOSS 3-1 (C) 4.5 02:10:50 10° W 02:15:20 34° NNW 02:20:48 10° NE
Cosmos 1140 Rocket 3.9 02:11:29 15° SW 02:15:31 53° WNW 02:20:32 10° NNE
Cosmos 1656 4.0 02:11:01 13° S 02:15:49 59° ESE 02:21:16 10° NE
H-2A R/B 3.4 02:11:42 10° NNE 02:16:34 36° E 02:21:16 10° SSE
Cosmos 1346 Rocket 3.0 02:14:57 17° SW 02:17:27 48° WNW 02:21:00 10° N
SL-4 R/B 1.8 02:16:05 10° W 02:19:12 58° NNW 02:22:16 10° ENE
Cosmos 1605 Rocket 4.0 02:13:09 10° N 02:19:29 90° W 02:25:42 10° S
H-2A R/B 4.3 02:17:25 10° SE 02:20:49 30° ENE 02:24:17 10° N
COSMOS 2441 4.4 02:16:02 10° NNE 02:20:56 82° ESE 02:25:39 11° SSW
Cosmos 1763 Rocket 3.5 02:20:59 10° NNW 02:25:56 55° WSW 02:30:50 10° S
Cosmos 371 Rocket 3.3 02:23:01 14° SSW 02:27:11 76° WNW 02:32:02 10° NNE
Cosmos 304 Rocket 3.9 02:25:25 14° SW 02:29:29 64° WNW 02:34:14 10° NNE
Lacrosse 4 Rocket 3.1 02:27:29 10° WNW 02:30:05 16° WSW 02:31:50 13° SW
Cosmos 2297 Rocket 2.5 02:28:25 10° NNW 02:34:06 74° ENE 02:39:45 10° SE
OPS 8737 4.4 02:34:16 10° NW 02:37:17 44° SW 02:40:16 10° SSE
NOSS 2-2 (D) 3.6 02:34:02 10° NW 02:37:39 77° NE 02:42:31 10° SE
Cosmos 2369 Rocket 4.1 02:34:35 10° W 02:38:44 21° NW 02:42:54 10° N
Cosmos 1025 Rocket 3.0 02:34:49 10° S 02:39:09 83° W 02:43:32 10° N
MOZ.5/SAFIR/RUBIN 5/SL-8 3.9 02:36:58 10° S 02:41:29 57° W 02:46:03 10° NNW
FENGYUN 3A 4.2 02:36:25 10° N 02:41:32 46° WNW 02:46:37 10° SW
USA 276 2.3 02:40:19 10° WNW 02:43:15 69° N 02:46:19 10° E
CZ-2D R/B 2.6 02:38:27 10° NNE 02:43:54 65° ESE 02:49:15 10° S
Lacrosse 5 rocket 2.9 02:41:52 10° NW 02:45:01 32° NNE 02:48:05 10° E
ADEOS Rocket 3.8 02:41:06 10° N 02:47:02 40° WNW 02:52:26 10° SW
DMSP B5D2-2 4.3 02:47:23 10° S 02:52:31 53° W 02:57:41 10° NNW
ALOS 2.3 02:48:47 10° NNE 02:53:22 79° ESE 02:57:54 10° S
NOSS 2-2 (C) 4.0 02:50:10 10° NW 02:53:47 40° SW 02:58:37 10° SSE
ATLAS 3B R/B 4.1 02:47:46 10° S 02:54:33 37° ESE 03:01:35 10° NE
Cosmos 468 Rocket 4.0 02:51:52 10° NNW 02:56:54 60° WSW 03:01:55 10° S
ARGOS 4.4 02:53:09 10° NNE 02:58:11 39° E 03:03:12 10° SSE
Spot 2 4.2 02:56:25 10° SSE 03:00:38 76° ENE 03:04:42 10° NNW
Cosmos 2360 4.3 02:55:04 10° SSW 03:00:45 78° WNW 03:06:30 10° NNE
Cosmos 2263 Rocket 4.0 02:56:12 10° NNW 03:01:24 38° NE 03:06:35 10° ESE
Cosmos 1455 Rocket 3.2 03:00:11 10° N 03:04:31 81° E 03:08:50 10° SSE
USA 308 4.0 03:03:01 10° W 03:06:54 40° N 03:10:45 10° ENE
Envisat 3.3 03:07:18 10° N 03:12:14 53° WNW 03:17:08 10° SW
